This is the latest recevied weather packets stored in our database for station/object SP6YY-15. If no packets are shown the sender has not sent any weather packets the latest 10 day(s).
| Time | Temp. | Humidity | Pressure | Rain* | Wind** | Luminosity | Snow |
|---|---|---|---|---|---|---|---|
| 1788329436 | 30° C | 26% | 1007.2 hPa | - | - | - | - |
| 1788329136 | 31.67° C | 23% | 1007.4 hPa | - | - | - | - |
| 1788328536 | 33.89° C | 19% | 1007.2 hPa | - | - | - | - |
| 1788328208 | 32.78° C | 19% | 1007.6 hPa | - | - | - | - |
| 1788327607 | 30.56° C | 21% | 1007.6 hPa | - | - | - | - |
| 1788281688 | 31.11° C | 15% | 1004.3 hPa | - | - | - | - |
| 1788281087 | 32.22° C | 15% | 1004.3 hPa | - | - | - | - |
| 1788280479 | 34.44° C | 15% | 1004.8 hPa | - | - | - | - |
| 1788279583 | 37.22° C | 22% | 1004.9 hPa | - | - | - | - |
| 1788279283 | 37.22° C | 22% | 1004.9 hPa | - | - | - | - |
| 1788278983 | 36.67° C | 21% | 1004.9 hPa | - | - | - | - |
| 1788278683 | 36.67° C | 21% | 1005.1 hPa | - | - | - | - |
| 1788278083 | 39.44° C | 13% | 1004.9 hPa | - | - | - | - |
| 1788261305 | 51.67° C | 20% | 1005.3 hPa | - | - | - | - |
| 1788261005 | 51.11° C | 20% | 1005.4 hPa | - | - | - | - |
| 1788260705 | 50.56° C | 21% | 1005.4 hPa | - | - | - | - |
| 1788260406 | 49.44° C | 22% | 1005.3 hPa | - | - | - | - |
| 1788260105 | 48.33° C | 24% | 1005.4 hPa | - | - | - | - |
| 1788259805 | 47.22° C | 24% | 1005.4 hPa | - | - | - | - |
| 1788259205 | 44.44° C | 26% | 1005.3 hPa | - | - | - | - |
| 1788258905 | 43.33° C | 27% | 1005.3 hPa | - | - | - | - |
| 1788258605 | 42.22° C | 28% | 1005.4 hPa | - | - | - | - |
| 1788258305 | 41.11° C | 28% | 1005.3 hPa | - | - | - | - |
| 1788258005 | 41.11° C | 28% | 1005.3 hPa | - | - | - | - |
| 1788257705 | 40.56° C | 29% | 1005.2 hPa | - | - | - | - |
* Rain since midnight (hover to see other rain measurements)
** Current wind speed in m/s (hover to see current wind gust speed)